Miscellaneous Local Product
Issued by NWS Hastings, NE

Home | Current Version | Previous Version | Text Only | Print | Product List | Glossary Off
Versions: 1 2 3 4 5 6 7 8 9 10 11 12 13 14 15 16 17 18 19 20 21 22 23 24 25 26 27 28 29 30 31 32 33 34 35 36 37 38 39 40 41 42 43 44 45 46 47 48 49 50

000
AXUS43 KGID 262302
MISGRI

GID CWA HOURLY WEATHER ROUNDUP
NATIONAL WEATHER SERVICE HASTINGS NE
600 PM CDT TUE JUL 26 2016

NOTE: "FAIR" INDICATES FEW OR NO CLOUDS BELOW 12,000 FEET WITH NO
SIGNIFICANT WEATHER AND/OR OBSTRUCTIONS TO VISIBILITY.

...SOUTH CENTRAL NEBRASKA...

CITY           SKY/WX    TMP DP  RH WIND       PRES   REMARKS
GRAND ISLAND   SUNNY     87  65  47 SE14      30.00F
HASTINGS       SUNNY     87  66  49 SE13      29.99F
KEARNEY        SUNNY     88  63  42 S15       29.99F
ORD            SUNNY     86  62  44 SE12      29.98R
YORK           SUNNY     84  66  54 E9        30.00F
AURORA         SUNNY     86  64  48 SE9       30.00S
LEXINGTON      SUNNY     86  65  48 S14       29.98F
HOLDREGE       SUNNY     87  62  44 S13       29.99F
HEBRON         SUNNY     86  63  45 S8        29.98F

...NEBRASKA PANHANDLE...

CITY           SKY/WX    TMP DP  RH WIND       PRES   REMARKS
CHADRON        SUNNY     94  58  29 VRB3      29.93F HX  93
ALLIANCE       CLOUDY    89  60  37 SE12      29.98S
SCOTTSBLUFF    CLOUDY    88  58  36 S5        29.98F
SIDNEY         PTSUNNY   93  49  22 W9G17     30.03S HX  90

...WESTERN AND NORTH CENTRAL NEBRASKA...

CITY           SKY/WX    TMP DP  RH WIND       PRES   REMARKS
VALENTINE      SUNNY     93  60  33 S17       29.94F HX  93
AINSWORTH      SUNNY     89  64  43 SE17      29.97F HX  90
ONEILL         SUNNY     89  58  34 SE14      29.99F
BROKEN BOW     SUNNY     85  66  53 S14G24    29.99S
IMPERIAL       MOSUNNY   90  61  37 S14       30.00R HX  90
NORTH PLATTE   SUNNY     87  67  51 SE15G22   29.97F HX  90
MCCOOK         SUNNY     92  63  38 S12G23    29.98S HX  93

...EASTERN NEBRASKA...

CITY           SKY/WX    TMP DP  RH WIND       PRES   REMARKS
NORFOLK        SUNNY     85  66  53 SE12      29.99F
SO SIOUX CITY  SUNNY     87  65  47 S12       29.98F
TEKAMAH        SUNNY     86  64  47 SE9       30.00F
COLUMBUS       MOSUNNY   84  64  51 SE8       30.00F
ALBION         SUNNY     83  64  51 SE13      30.01S
OMAHA EPPLEY   MOSUNNY   86  66  51 E9        30.01S
OFFUTT AFB     SUNNY     86  66  52 E7        30.01S
MILLARD        SUNNY     87  65  48 SE3       30.01R
LINCOLN        SUNNY     88  63  43 E8        30.01S
NEBRASKA CITY  SUNNY     83  63  50 E6        30.01S
BEATRICE       SUNNY     88  64  44 SE6       29.99S
FALLS CITY     SUNNY     86  67  52 E5        29.98F

...NORTHERN KANSAS...

CITY           SKY/WX    TMP DP  RH WIND       PRES   REMARKS
GOODLAND       SUNNY     91  64  40 S16G23    30.02S HX  92
HILL CITY      MOSUNNY   88  67  49 S12       29.99S HX  91
NORTON         CLEAR     90  57  33 E13       29.99F
SMITH CENTER   SUNNY     90  64  43 SE13      29.99S HX  91
BELOIT         SUNNY     88  66  48 SE8       29.96F HX  90
HAYS           SUNNY     90  63  40 SE13      29.98S HX  90
RUSSELL        SUNNY     90  64  42 E12G20    29.96F HX  91
CONCORDIA      SUNNY     86  67  52 E8        29.98F
SALINA         SUNNY     90  68  48 E8        29.96F HX  94
TOPEKA         SUNNY     88  66  48 SE7       29.97S HX  90



USA.gov is the U.S. government's official web portal to all federal, state and local government web resources and services.